[[{"header":{"parameterUnit":"m.s-1","parameterCategory":1,"la1":30.2991,"la2":30.254,"lo1":-89.0895,"lo2":-89.0444,"dy":0.0017,"dx":0.0017,"nx":28,"ny":28,"refTime":"2024-04-08T09:00:00:Z","depth":0,"parameterNumber":2,"parameterNumberName":"U-component_of_WINDS"},"data":[0,0,0,0,0,0,0,0,0,0,0,0,0,0,0,0,0,0,0,0,0,0,0,0,0,0,0,0,0,0,0,0,0,0,0,0,0,0,0,0,0,0,0,0,0,0,0,0,0,0,0,0,0,0,0,0,0,0,-7.7836,-7.7837,0,-7.7941,-7.7942,-7.7944,-7.7895,-7.7892,-7.789,-7.7887,-7.7991,-7.7996,-7.8001,0,0,0,0,0,0,0,0,0,0,0,0,0,-7.7589,-7.7593,-7.7836,-7.7837,-7.7838,-7.7941,-7.7943,-7.7944,-7.7896,-7.7892,-7.7889,-7.7886,-7.7989,-7.7995,-7.8002,0,0,0,0,0,0,0,0,0,0,0,0,0,-7.7695,-7.7595,-7.7835,-7.7827,-7.7827,-7.7941,-7.7943,-7.7944,-7.7896,-7.7892,-7.7888,-7.7885,-7.7987,-7.7995,-7.8002,-7.813,0,0,-7.8026,-7.803,0,0,0,0,0,0,0,0,-7.7689,-7.7704,-7.7827,-7.7827,-7.7828,-7.7901,-7.7893,-7.8006,-7.7897,-7.787,-7.7887,-7.7883,-7.7964,-7.7973,-7.8002,-7.8135,-7.8139,-7.8027,-7.8032,-7.8035,-7.8037,0,0,0,0,0,0,0,-7.7682,-7.7699,-7.7877,-7.7828,-7.7829,-7.7816,-7.7827,-7.7915,-7.7937,-7.7872,-7.7869,-7.7882,-7.7963,-7.7994,-7.8004,-7.8141,-7.8027,-7.8034,-7.8039,-7.8042,-7.8383,-7.8387,0,0,0,0,0,0,-7.7675,-7.7694,-7.7874,-7.788,-7.7748,-7.7824,-7.7836,-7.7881,-7.7936,-7.7941,-7.7885,-7.7879,-7.7983,-7.7995,-7.8007,-7.8158,-7.8035,-7.8042,-7.8047,-7.8378,-7.8384,-7.8388,0,0,0,0,0,0,-7.767,-7.7692,-7.787,-7.7786,-7.7808,-7.7832,-7.7884,-7.7886,-7.7916,-7.7947,-7.795,-7.7913,-7.798,-7.7996,-7.81,-7.8161,-7.8046,-7.8053,-7.8373,-7.838,-7.8386,-7.8462,0,0,0,0,0,0,-7.7663,-7.769,-7.7739,-7.7788,-7.7813,-7.7961,-7.7888,-7.7891,-7.793,-7.7924,-7.7973,-7.7978,-7.7978,-7.8088,-7.8108,-7.817,-7.8059,-7.8368,-7.8376,-7.8384,-7.8454,-7.847,-7.8484,0,0,0,0,0,-7.7655,-7.7756,-7.7742,-7.7764,-7.7875,-7.7965,-7.7979,-7.7979,-7.7936,-7.7984,-7.8004,-7.7976,-7.8153,-7.8099,-7.8121,-7.8186,-7.8364,-7.8374,-7.8383,-7.8447,-7.8467,-7.8484,0,0,0,0,0,0,-7.7711,-7.7762,-7.7747,-7.7867,-7.7913,-7.7957,-7.8018,-7.8,-7.8057,-7.8048,-7.8045,-7.8057,-7.8164,-7.8186,-7.8126,-7.8312,-7.8251,-7.8266,-7.8293,-7.8312,-7.8327,-7.8317,-7.8066,0,0,0,0,0,-7.7738,-7.7809,-7.7849,-7.7951,-7.7974,-7.7993,-7.8032,-7.8029,-7.8075,-7.8093,-7.812,-7.8165,-7.823,-7.8273,-7.8335,-7.8459,-7.8468,-7.8515,-7.853,-7.8542,-7.8553,-7.8619,-7.8639,-7.8421,-7.8421,-7.842,0,0,-7.7793,-7.783,-7.7874,-7.7963,-7.7997,-7.8069,-7.8009,-7.8087,-7.8139,-7.8104,-7.8203,-7.8226,-7.8275,-7.8389,-7.8441,-7.8411,-7.8617,-7.8555,-7.8564,-7.8568,-7.8631,-7.8652,-7.867,-7.8427,-7.8426,-7.8425,0,0,-7.7929,-7.7966,-7.8053,-7.8091,-7.8145,-7.8157,-7.8179,-7.8227,-7.824,-7.8341,-7.8315,-7.8378,-7.8491,-7.8527,-7.8561,-7.8715,-7.869,-7.8735,-7.8812,-7.8876,-7.8893,-7.8908,-7.896,-7.8979,-7.8747,-7.8748,-7.8748,0,-7.799,-7.8098,-7.8101,-7.8181,-7.822,-7.8196,-7.8284,-7.8319,-7.839,-7.8417,-7.8384,-7.8526,-7.8558,-7.8679,-7.8717,-7.8746,-7.8769,-7.8727,-7.8891,-7.8906,-7.892,-7.897,-7.899,-7.8752,-7.8752,-7.8751,-7.8751,0,-7.8169,-7.8244,-7.8309,-7.838,-7.8427,-7.8511,-7.8526,-7.8573,-7.8568,-7.8583,-7.8685,-7.8724,-7.8792,-7.8822,-7.8816,-7.8943,-7.8923,-7.8891,-7.8829,-7.8946,-7.8992,-7.9011,-7.8759,-7.8758,-7.8756,-7.8755,0,0,-7.8338,-7.8412,-7.8435,-7.8467,-7.8527,-7.8585,-7.8669,-7.8738,-7.8777,-7.8829,-7.8897,-7.8995,-7.8967,-7.9005,-7.9003,-7.9061,-7.9177,-7.9021,-7.9022,-7.9046,-7.9316,-7.9336,-7.9358,-7.9164,-7.9167,-7.917,-7.9311,0,-7.8475,-7.8622,-7.8628,-7.8761,-7.883,-7.8809,-7.8882,-7.8926,-7.8944,-7.9004,-7.9024,-7.9092,-7.9051,-7.9074,-7.913,-7.9151,-7.923,-7.9142,-7.9223,-7.9226,-7.9207,-7.9383,-7.9404,-7.9534,-7.9329,-7.9332,-7.9334,0,-7.8653,-7.8712,-7.8852,-7.8903,-7.8932,-7.8997,-7.9061,-7.9121,-7.917,-7.9179,-7.9224,-7.9215,-7.9299,-7.9239,-7.9354,-7.9294,-7.9329,-7.9345,-7.935,-7.9353,-7.9284,-7.9387,-7.9576,-7.9594,-7.9363,-7.9361,-7.9359,0,-7.8758,-7.8873,-7.8971,-7.9,-7.9062,-7.9108,-7.9136,-7.9182,-7.9224,-7.9281,-7.9307,-7.9373,-7.9408,-7.9459,-7.9467,-7.9423,-7.9582,-7.9523,-7.9589,-7.9589,-7.9619,-7.9616,-7.9812,-7.965,-7.965,-7.9649,-7.9649,0,-7.8908,-7.8993,-7.9019,-7.9079,-7.9174,-7.9182,-7.9276,-7.93,-7.9343,-7.9406,-7.9394,-7.9453,-7.9464,-7.9526,-7.9534,-7.9627,-7.9644,-7.9651,-7.9651,-7.965,-7.9648,-7.9668,-7.9658,-7.9654,-7.9653,-7.9652,-7.9651,0,-7.9038,-7.9059,-7.9164,-7.9217,-7.9232,-7.9299,-7.9343,-7.94,-7.9419,-7.9499,-7.9519,-7.9547,-7.962,-7.9635,-7.9721,-7.9727,-7.9835,-7.9829,-7.9818,-7.9816,-7.988,-7.9872,-8.0092,-8.012,-7.9944,-7.9946,-7.9947,0,-7.913,-7.9195,-7.9255,-7.9298,-7.9328,-7.9397,-7.944,-7.9452,-7.9497,-7.956,-7.9609,-7.9681,-7.9738,-7.9855,-7.9882,-7.9948,-7.994,-8.0013,-7.9949,-7.9946,-7.9936,-7.993,-7.9936,-8.0023,-8.0025,-8.0027,-8.0028,0,-7.9289,-7.9297,-7.936,-7.9428,-7.948,-7.9533,-7.9584,-7.9619,-7.9638,-7.9689,-7.9764,-7.9809,-7.9898,-7.9968,-8.0035,-8.0062,-8.0047,-8.0049,-8.0067,-8.0063,-8.0052,-8.0055,-7.9846,-8.0042,-8.0041,-8.004,-8.0039,-8.0038,-7.9399,-7.9456,-7.9508,-7.9579,-7.9619,-7.9668,-7.9724,-7.9751,-7.9814,-7.9887,-7.9891,-7.9972,-8.0022,-8.011,-8.0142,-8.0205,-8.0182,-8.0209,-8.0215,-8.022,-8.0224,-8.0047,-8.0217,-8.0217,-8.0217,-8.0216,-8.0216,0,-7.9554,-7.9587,-7.9653,-7.9725,-7.9781,-7.9767,-7.9823,-7.987,-7.9942,-7.9991,-8.0048,-8.0134,-8.0204,-8.0238,-8.0307,-8.035,-8.0345,-8.0367,-8.0361,-8.0368,-8.0242,-8.0218,-8.037,-8.037,-8.037,-8.037,-8.037,-8.037,-7.9641,-7.9736,-7.9751,-7.9866,-7.9898,-7.9978,-8.0011,-8.0056,-8.0094,-8.0191,-8.025,-8.0273,-8.0316,-8.0387,-8.045,-8.0458,-8.0482,-8.0507,-8.0511,-8.0392,-8.0377,-8.0361,-8.0338,-8.0513,-8.0513,-8.0631,-8.0632,-8.0633]},{"header":{"parameterUnit":"m.s-1","parameterCategory":1,"la1":30.2991,"la2":30.254,"lo1":-89.0895,"lo2":-89.0444,"dy":0.0017,"dx":0.0017,"nx":28,"ny":28,"refTime":"2024-04-08T09:00:00:Z","depth":0,"parameterNumber":3,"parameterNumberName":"V-component_of_WINDS"},"data":[0,0,0,0,0,0,0,0,0,0,0,0,0,0,0,0,0,0,0,0,0,0,0,0,0,0,0,0,0,0,0,0,0,0,0,0,0,0,0,0,0,0,0,0,0,0,0,0,0,0,0,0,0,0,0,0,0,0,3.3215,3.3216,0,3.325,3.325,3.3251,3.3245,3.3244,3.3243,3.3243,3.3277,3.3278,3.328,0,0,0,0,0,0,0,0,0,0,0,0,0,3.3144,3.3145,3.3215,3.3216,3.3216,3.325,3.3251,3.3251,3.3245,3.3244,3.3243,3.3242,3.3276,3.3278,3.328,0,0,0,0,0,0,0,0,0,0,0,0,0,3.3177,3.3146,3.3215,3.3217,3.3218,3.325,3.3251,3.3251,3.3245,3.3244,3.3243,3.3242,3.3276,3.3278,3.328,3.3312,0,0,3.3287,3.3288,0,0,0,0,0,0,0,0,3.3175,3.3179,3.3216,3.3217,3.3218,3.3242,3.3238,3.3272,3.3245,3.3234,3.3243,3.3242,3.3266,3.3269,3.3277,3.3314,3.3315,3.3287,3.3288,3.3289,3.329,0,0,0,0,0,0,0,3.3172,3.3178,3.3229,3.3217,3.3218,3.3217,3.322,3.3244,3.3255,3.3235,3.3235,3.3239,3.3266,3.3275,3.3278,3.3316,3.3287,3.3289,3.329,3.3291,3.3384,3.3385,0,0,0,0,0,0,3.317,3.3176,3.3228,3.323,3.3194,3.3219,3.3223,3.3235,3.3255,3.3257,3.324,3.3239,3.3272,3.3276,3.3279,3.332,3.3289,3.3291,3.3293,3.3383,3.3384,3.3385,0,0,0,0,0,0,3.3168,3.3174,3.3226,3.3203,3.3209,3.3221,3.3235,3.3236,3.3245,3.3258,3.326,3.3247,3.3271,3.3276,3.3305,3.3321,3.3292,3.3294,3.3381,3.3383,3.3385,3.3401,0,0,0,0,0,0,3.3166,3.3174,3.3186,3.3203,3.3211,3.3251,3.3236,3.3238,3.325,3.3248,3.3266,3.3268,3.3271,3.3302,3.3307,3.3324,3.3296,3.338,3.3382,3.3384,3.3399,3.3403,3.3407,0,0,0,0,0,3.3164,3.3188,3.3186,3.3193,3.3226,3.3252,3.3256,3.326,3.3251,3.3263,3.3272,3.3267,3.3319,3.3305,3.3311,3.3328,3.3379,3.3381,3.3384,3.3397,3.3402,3.3407,0,0,0,0,0,0,3.317,3.319,3.3188,3.3219,3.3234,3.3251,3.3266,3.3265,3.3282,3.328,3.3284,3.3288,3.3318,3.3326,3.331,3.3362,3.3347,3.3351,3.3356,3.336,3.3364,3.3362,3.3298,0,0,0,0,0,3.3176,3.3196,3.3212,3.3237,3.3245,3.3255,3.3266,3.3268,3.3284,3.329,3.33,3.3316,3.3336,3.3348,3.3367,3.3401,3.3405,3.3416,3.342,3.3423,3.3426,3.3447,3.3452,3.3394,3.3394,3.3393,0,0,3.3186,3.32,3.3212,3.3239,3.3251,3.3272,3.326,3.3282,3.3298,3.3293,3.3322,3.333,3.3347,3.3379,3.3394,3.3387,3.3444,3.3426,3.3428,3.343,3.345,3.3456,3.3461,3.3395,3.3395,3.3395,0,0,3.3217,3.3228,3.3252,3.3265,3.3284,3.3291,3.3297,3.3315,3.3321,3.335,3.3348,3.3367,3.34,3.3414,3.3425,3.3464,3.3461,3.347,3.349,3.351,3.3515,3.3519,3.3535,3.354,3.3474,3.3474,3.3474,0,3.3227,3.3259,3.3264,3.3288,3.3301,3.3299,3.3324,3.3336,3.336,3.337,3.3362,3.3406,3.3417,3.3454,3.3464,3.3472,3.348,3.3468,3.3514,3.3518,3.3522,3.3537,3.3543,3.3475,3.3475,3.3474,3.3474,0,3.3273,3.3295,3.3312,3.3337,3.3352,3.3376,3.3386,3.34,3.3402,3.341,3.3441,3.3455,3.3478,3.3487,3.3487,3.3524,3.352,3.3513,3.3498,3.3528,3.3543,3.3548,3.3476,3.3476,3.3476,3.3475,0,0,3.3306,3.3336,3.3343,3.3355,3.3378,3.3395,3.342,3.3444,3.3457,3.3474,3.3496,3.3527,3.3521,3.3534,3.3537,3.3555,3.3588,3.3546,3.3546,3.3554,3.3631,3.3637,3.3644,3.3586,3.3587,3.3588,3.3631,0,3.334,3.3384,3.3391,3.3431,3.3453,3.3453,3.3476,3.3492,3.3501,3.3521,3.3531,3.3553,3.3544,3.3552,3.3569,3.358,3.3604,3.3577,3.3607,3.3608,3.3604,3.3651,3.3656,3.3695,3.3636,3.3637,3.3638,0,3.3384,3.3405,3.3447,3.347,3.3479,3.3499,3.3523,3.3542,3.3562,3.3567,3.3583,3.3585,3.3612,3.3597,3.3635,3.3617,3.363,3.3638,3.3639,3.3642,3.3625,3.3656,3.3708,3.3714,3.3646,3.3645,3.3645,0,3.3407,3.3445,3.3476,3.3487,3.3513,3.3528,3.3539,3.3558,3.3573,3.3594,3.3604,3.3627,3.364,3.3659,3.3667,3.3655,3.3706,3.369,3.3712,3.3712,3.3722,3.3722,3.3778,3.3729,3.3729,3.3729,3.3729,0,3.3444,3.347,3.3487,3.3506,3.3536,3.3545,3.3574,3.3586,3.3603,3.3625,3.3626,3.3647,3.3656,3.3679,3.3685,3.3717,3.3723,3.3729,3.373,3.3729,3.3729,3.3738,3.3736,3.3731,3.3731,3.373,3.373,0,3.3474,3.3486,3.3521,3.3544,3.3551,3.3572,3.3592,3.3611,3.3621,3.3649,3.3656,3.3671,3.3698,3.3709,3.374,3.3745,3.3783,3.3781,3.3776,3.3777,3.3798,3.3797,3.3863,3.3873,3.3817,3.3818,3.3818,0,3.3497,3.3518,3.3545,3.356,3.3573,3.3597,3.3613,3.3623,3.364,3.3666,3.3682,3.3709,3.3731,3.3774,3.3788,3.3814,3.3814,3.3835,3.3817,3.3816,3.3816,3.3815,3.3818,3.3838,3.3839,3.3839,3.384,0,3.3538,3.3544,3.3567,3.3594,3.3614,3.3634,3.3655,3.3667,3.368,3.3699,3.3727,3.3745,3.3779,3.3807,3.3833,3.3845,3.3846,3.3846,3.3852,3.3851,3.3848,3.3852,3.3787,3.3844,3.3843,3.3843,3.3843,3.3843,3.3567,3.3586,3.3609,3.3636,3.3653,3.3672,3.3692,3.3706,3.373,3.3759,3.3764,3.3795,3.3816,3.3852,3.3866,3.3891,3.3885,3.3894,3.3897,3.3899,3.3901,3.3844,3.3895,3.3895,3.3895,3.3895,3.3895,0,3.3609,3.3624,3.3649,3.3679,3.37,3.37,3.3723,3.3741,3.3769,3.3789,3.3812,3.3846,3.3873,3.3891,3.3918,3.3935,3.3936,3.3942,3.3941,3.3945,3.3904,3.3896,3.3941,3.3941,3.3941,3.3941,3.3941,3.3941,3.3633,3.3667,3.3676,3.3719,3.3734,3.3766,3.3779,3.3798,3.3815,3.3853,3.3877,3.3888,3.3908,3.3938,3.3964,3.3968,3.3979,3.3986,3.399,3.3952,3.3947,3.3942,3.3935,3.3988,3.3988,3.4029,3.4029,3.403]}]]